Location: Banios
(43.0451°N, 0.2335°E)
Time: 13:54:39
(UTC+00:00)

USA 308 - Pass Details

Date: 25 January 2021
Orbit: 565 x 581 km, 54.0° (Epoch: 23 February)

Event Time Altitude Azimuth Distance (km) Brightness Sun altitude
Exits shadow 06:24:11 12° 261° (W) 1,734 4.8 -10.5°
Maximum altitude 06:27:52 42° 331° (NNW) 815 3.4 -9.9°
Drops below altitude 10° 06:31:55 10° 43° (NE) 1,864 5.9 -9.2°
Sets 06:34:16 0° 51° (NE) 2,765 6.9 -8.8°
